Regional Weather Roundup
Issued by NWS

Home | Current Version | Previous Version | Text Only | Print | Product List | Glossary On
Versions: 1 2 3 4 5 6 7 8 9 10 11 12 13 14 15 16 17 18 19 20 21 22 23 24 25 26 27 28 29 30 31 32 33 34 35 36 37 38 39 40 41 42 43 44 45 46 47 48 49 50
000
ASUS43 KMKX 010900
RWRWI

WISCONSIN REGIONAL WEATHER ROUNDUP
NATIONAL WEATHER SERVICE MILWAUKEE/SULLIVAN WI
400 AM CDT SAT OCT 01 2016

NOTE: "FAIR" INDICATES FEW OR NO CLOUDS BELOW 12,000 FEET WITH NO
SIGNIFICANT WEATHER AND/OR OBSTRUCTIONS TO VISIBILITY.

WIZ001-002-006>008-014>016-023>028-011000-
NORTHWEST WISCONSIN

CITY           SKY/WX    TMP DP  RH WIND       PRES   REMARKS
SUPERIOR ARPT  CLOUDY    51  51  99 NE5       30.25F
ASHLAND        FOG       54  54 100 N3        30.24F VSB 1/4
HAYWARD        MOCLDY    50  48  93 N3        30.22F
SIREN          MOCLDY    51  50  96 CALM      30.22S
CUMBERLAND     CLEAR     50  46  87 NE3       30.20F
RICE LAKE      MOCLDY    52  50  93 CALM      30.21F
CHETEK         NOT AVBL
LADYSMITH      CLEAR     53  50  91 CALM      30.21F
EAU CLAIRE     NOT AVBL
MENOMONIE      MOCLDY    57  54  88 N3        30.18F
NEW RICHMOND   CLEAR     51  51  99 NE5       30.19F
OSCEOLA        CLEAR     53  53 100 CALM      30.22F
$$

WIZ003>005-009-010-017-018-011000-
NORTH CENTRAL WISCONSIN

CITY           SKY/WX    TMP DP  RH WIND       PRES   REMARKS
MANITOWISH WTR NOT AVBL
ARBOR VITAE    CLOUDY    53  50  89 CALM      30.21F
WOODRUFF       CLOUDY    53  50  89 CALM      30.21F
RHINELANDER    CLOUDY    54  51  90 NE6       30.20F
EAGLE RIVER    PTCLDY    50  49  95 CALM      30.21S
LAND O LAKES   CLOUDY    47  46  97 CALM      30.24S
PHILLIPS       MOCLDY    49  49 100 NE6       30.21S
TOMAHAWK       CLOUDY    53  49  86 N3        30.20S
MEDFORD        CLOUDY    51  51 100 NE5       30.18F
MERRILL        CLOUDY    54  52  91 NE5       30.19S
$$

WIZ029-030-035-036-043>047-011000-
CENTRAL WISCONSIN

CITY           SKY/WX    TMP DP  RH WIND       PRES   REMARKS
WAUSAU         CLOUDY    53  51  93 CALM      30.16S
MOSINEE        CLOUDY    54  52  94 NE7       30.17F
MARSHFIELD     CLOUDY    56  51  84 NE6       30.15F
STEVENS POINT  CLOUDY    57  53  88 NE10      30.16S
WAUPACA        LGT RAIN  60  59  96 NE7       30.14S
WAUTOMA        LGT RAIN  58  58 100 NE7       30.13S
WISC RAPIDS    CLOUDY    60  55  83 NE7       30.15F
CAMP DOUGLAS   MOCLDY    57  55  94 N3        30.12F
$$

WIZ011>013-019>022-031-037>040-048>050-011000-
NORTHEAST WISCONSIN

CITY           SKY/WX    TMP DP  RH WIND       PRES   REMARKS
ANTIGO         MOCLDY    53  52  97 CALM      30.18S
SHAWANO        RAIN      60  56  87 NE7       30.16S
OCONTO         NOT AVBL
STURGEON BAY   CLOUDY    60  55  83 E3        30.15F
GREEN BAY      CLOUDY    60  59  96 NE10      30.14S
MANITOWOC      NOT AVBL
APPLETON       CLOUDY    55  55 100 NE9G16    30.12S
CLINTONVILLE   DRIZZLE   57  54  88 NE3       30.15R
OSHKOSH        CLOUDY    59  57  93 NE9       30.12R FOG
$$

WIZ032>034-041-042-053>061-011000-
SOUTHWEST WISCONSIN

CITY           SKY/WX    TMP DP  RH WIND       PRES   REMARKS
LA CROSSE      CLOUDY    62  56  80 N6        30.12F
SPARTA         CLOUDY    58  55  91 N3        30.14F
VIROQUA        CLOUDY    57  57 100 N6        30.12F
BOSCOBEL       CLOUDY    60  58  92 CALM      30.10F
PRAIRIE DU CHI CLOUDY    60  56  88 N3        30.10F
PLATTEVILLE    CLOUDY    59  59 100 N7        30.09S
$$

WIZ056-057-062-063-064-067-068-011000-
SOUTH CENTRAL WISCONSIN

CITY           SKY/WX    TMP DP  RH WIND       PRES   REMARKS
REEDSBURG      NOT AVBL
BARABOO/DELLS  DRIZZLE   58  56  96 N6        30.10S
LONE ROCK      NOT AVBL
MINERAL POINT  CLOUDY    59  59 100 NE5       30.09S
MADISON        LGT RAIN  59  58  96 NE9       30.08S FOG
MIDDLETON      CLOUDY    60  60 100 NE6       30.08F
WATERTOWN      RAIN      59  59 100 N7        30.07S
MONROE         CLOUDY    57  57 100 N8        30.07S
JANESVILLE     CLOUDY    61  59  94 N5        30.06R FOG
$$

WIZ051-052-058>065-066-070>072-011000-
SOUTHEAST WISCONSIN

CITY           SKY/WX    TMP DP  RH WIND       PRES   REMARKS
MILWAUKEE      LGT RAIN  62  59  90 E3        30.07S
WAUKESHA       CLOUDY    57  57 100 E5        30.09S
MILWAUKEE/TIMM HVY RAIN  59  55  88 E3        30.08S
RACINE         CLOUDY    61  58  90 CALM      30.07F
BURLINGTON     CLOUDY    58  57  97 CALM      30.07R
KENOSHA        CLOUDY    59  57  93 N6        30.06F
FOND DU LAC    CLOUDY    59  58  96 NE8       30.11S
SHEBOYGAN      CLOUDY    59  57  93 NE6       30.11S
WEST BEND      CLOUDY    68  68 100 NE9       30.09S
JUNEAU         DRIZZLE   58  57  97 N7        30.10S
$$

LSZ147-162-011000-
LAKE SUPERIOR

STATION/POSITION TIME  TEMP    WIND        PRES    WAVE
                       AIR SEA DIR/SP/G            HT/PER
                 (UTC) (F)     (DEG/KT/KT) (MB)    (FT/S)
W MID LAKE BUOY  0750   57 55   40/  8/ 10 1024.2F   1/ 4
DEVILS ISLAND    0800   54      50/ 11/ 12 1024.6F
SAXON HARBOR     0800   53      CALM  /  2 1024.0
$$

LMZ867-665-643>646-011000-
LAKE MICHIGAN

STATION/POSITION TIME  TEMP    WIND        PRES    WAVE
                       AIR SEA DIR/SP/G            HT/PER
                 (UTC) (F)     (DEG/KT/KT) (MB)    (FT/S)
CHAMBERS ISLAND  0800   61      40/ 10/ 13 1021.0F
S GREEN BAY BUOY 0800   62 62   70/ 14/ 16 1020.5F
N MID LAKE BUOY  0750   63 64   90/ 17/ 19 1020.9F   4/ 5
NORTHPORT PIER   0800   63      70/ 12/ 15 1021.3F
SISTER BAY       0708   60     110/  5/  8   N/A
KEWAUNEE LAKESHO 0800   61      70/  9/ 15 1019.9F
SHEBOYGAN LAKESH 0800   61      80/ 15/ 16 1019.2F
PORT WASHINGTON  0800   61      60/  8/ 11 1019.6S
ATWATER BUOY     0800   58 56   90/  6/  8 1018.2F
MILWAUKEE LAKESH 0810   58     100/  8/  8   N/A
S MID LAKE BUOY  0750   63 67  100/ 14/ 16 1017.1F   4/ 6
KENOSHA   LAKESH 0800   63     110/  8/ 10 1017.6F
$$

TC  - TEMPERATURE IN CELSIUS
VSB - VISIBILITY IN STATUTE MILES
WCI - WIND CHILL INDEX
HX  - HEAT INDEX




USA.gov is the U.S. government's official web portal to all federal, state and local government web resources and services.